Weather History for Saint Simons Island, GA

Change the Weather History Date:

Thursday, February 6, 2014

  Actual Average Record
Temperature  
Mean Temperature 48 °F 53 °F  
Max Temperature 56 °F 62 °F 81 °F (2008)
Min Temperature 40 °F 44 °F 23 °F (1966)
Degree Days  
Heating Degree Days 17 12  
Month to date heating degree days 41 74  
Since 1 July heating degree days 991 1025  
Cooling Degree Days 0 0  
Month to date cooling degree days 7 0  
Year to date cooling degree days 7 3  
Moisture  
Dew Point 38 °F    
Average Humidity 75    
Maximum Humidity 93    
Minimum Humidity 56    
Precipitation  
Precipitation 0.37 in 0.12 in 1.30 in (1979)
Month to date precipitation 0.61 0.71  
Year to date precipitation 5.20 3.93  
Snow  
Snow 0.00 in - 0.00 in ()
Month to date snowfall 0.0  
Since 1 July snowfall T  
Snow Depth 0.00 in    
Sea Level Pressure  
Sea Level Pressure 30.21 in    
Wind  
Wind Speed 9 mph (North)    
Max Wind Speed 18 mph    
Max Gust Speed 26 mph    
Visibility 9 miles    
Events Rain    
T = Trace of Precipitation, MM = Missing Value Source: NWS Daily Summary

Daily Weather History Graph

Daily Weather History Graph

Search for Another Location

Airport:

Trip Planner

Search our weather history database for the weather conditions in past years. The results will help you decide how hot, cold, wet, or windy it might be!

Date:

Astronomy

Feb. 06, 2014 Rise Set
Actual Time 7:14 AM EST 6:05 PM EST
Civil Twilight 6:49 AM EST 6:30 PM EST
Nautical Twilight 6:20 AM EST 6:59 PM EST
Astronomical Twilight 5:51 AM EST 7:27 PM EST
Moon 11:37 AM EST (2/6) 12:28 AM EST (2/6)
Length of Visible Light 11h 41m
Length of Day
10h 51m
Waxing Crescent, 49% of the Moon is Illuminated
Feb 6
Waxing Crescent
Feb 6
First Quarter
Feb 14
Full
Feb 22
Last Quarter
Mar 1
New

Hourly Weather History & Observations

Time (EST) Temp. Windchill Dew Point Humidity Pressure Visibility Wind Dir Wind Speed Gust Speed Precip Events Conditions
12:53 AM 54.0 °F - 41.0 °F 62% 30.10 in 10.0 mi WNW 6.9 mph - N/A   Mostly Cloudy
1:53 AM 50.0 °F - 39.9 °F 68% 30.12 in 10.0 mi NW 11.5 mph - N/A   Scattered Clouds
2:53 AM 46.9 °F - 36.0 °F 66% 30.13 in 10.0 mi NW 8.1 mph - N/A   Clear
3:53 AM 44.1 °F 41.5 °F 35.1 °F 71% 30.15 in 10.0 mi NNW 4.6 mph - N/A   Clear
4:53 AM 42.1 °F 36.1 °F 32.0 °F 67% 30.16 in 10.0 mi NNW 10.4 mph 17.3 mph N/A   Clear
5:53 AM 41.0 °F 36.4 °F 32.0 °F 70% 30.19 in 10.0 mi NNW 6.9 mph - N/A   Clear
6:53 AM 39.9 °F 35.8 °F 30.9 °F 70% 30.21 in 10.0 mi NNW 5.8 mph - N/A   Clear
7:53 AM 39.9 °F 35.1 °F 30.9 °F 70% 30.22 in 10.0 mi North 6.9 mph - N/A   Clear
8:53 AM 43.0 °F 37.7 °F 30.9 °F 62% 30.25 in 10.0 mi North 9.2 mph - N/A   Clear
9:53 AM 46.0 °F 41.0 °F 32.0 °F 58% 30.26 in 10.0 mi North 10.4 mph - N/A   Clear
10:53 AM 48.9 °F - 35.1 °F 59% 30.25 in 10.0 mi NNE 11.5 mph - N/A   Clear
11:53 AM 50.0 °F - 36.0 °F 59% 30.25 in 10.0 mi NNE 16.1 mph - N/A   Clear
12:53 PM 52.0 °F - 37.0 °F 57% 30.21 in 10.0 mi ENE 15.0 mph 25.3 mph N/A   Clear
1:53 PM 52.0 °F - 37.9 °F 59% 30.20 in 10.0 mi NE 15.0 mph - N/A   Clear
2:53 PM 50.0 °F - 39.0 °F 66% 30.18 in 10.0 mi NE 13.8 mph - N/A   Clear
3:53 PM 50.0 °F - 39.9 °F 68% 30.18 in 10.0 mi NNE 12.7 mph - N/A   Overcast
4:53 PM 48.9 °F - 39.9 °F 71% 30.20 in 10.0 mi NNE 10.4 mph - N/A   Overcast
5:53 PM 48.9 °F - 39.9 °F 71% 30.21 in 10.0 mi NE 5.8 mph - N/A   Overcast
6:53 PM 48.9 °F - 42.1 °F 77% 30.22 in 8.0 mi ENE 5.8 mph - 0.01 in Rain Light Rain
7:53 PM 48.0 °F - 45.0 °F 89% 30.24 in 5.0 mi NNE 6.9 mph - 0.15 in Rain Rain
8:53 PM 48.0 °F - 46.0 °F 93% 30.27 in 7.0 mi North 6.9 mph - 0.05 in Rain Light Rain
9:53 PM 46.9 °F - 45.0 °F 93% 30.30 in 4.0 mi WNW 5.8 mph - 0.03 in Rain Rain
10:53 PM 46.9 °F - 45.0 °F 93% 30.28 in 7.0 mi NNE 8.1 mph - 0.11 in Rain Light Rain
11:53 PM 46.9 °F - 45.0 °F 93% 30.26 in 10.0 mi NNE 6.9 mph - 0.02 in Rain Light Rain